When you browse on this site, cookies collect data to enhance your experience and personalize the content and advertising you see.
Visit our Privacy Policy to learn more. By continuing to use the site, you agree to this use of cookies and data.
  • In Czech Republic
  • List of Countries
  • For 7 days
  • Water Temperature
  • Satellite Maps
  • Weather Map
  • Weather Widgets
  • user-avatar
    Login

    Hourly Weather Bolshaya Olshanka

    Today, 20 November, Tuesday

    Time Temperature Precipitation Wind Pressure Humidity
    00:00 -2°C° 0 mm 3 mps 762 mmHg 93%
    01:00 -2°C° 0 mm 3 mps 762 mmHg 93%
    02:00 -3°C° 0 mm 2 mps 761 mmHg 95%
    03:00 -3°C° 0 mm 2 mps 761 mmHg 95%
    04:00 -3°C° 0 mm 2 mps 761 mmHg 95%
    05:00 -3°C° 0 mm 2 mps 761 mmHg 95%
    06:00 -4°C° 0 mm 2 mps 761 mmHg 95%
    07:00 -4°C° 0 mm 2 mps 761 mmHg 95%
    08:00 -5°C° 0 mm 2 mps 761 mmHg 95%
    09:00 -4°C° 0 mm 2 mps 761 mmHg 93%
    10:00 -1°C° 0 mm 1 mps 761 mmHg 90%
    11:00 -1°C° 0 mm 1 mps 761 mmHg 88%
    12:00 0°C° 0 mm 1 mps 761 mmHg 87%
    13:00 0°C° 0 mm 1 mps 760 mmHg 86%
    14:00 0°C° 0 mm 1 mps 760 mmHg 85%
    15:00 -1°C° 0 mm 1 mps 760 mmHg 87%
    16:00 -2°C° 0 mm 1 mps 760 mmHg 90%
    17:00 -3°C° 0 mm 1 mps 760 mmHg 92%
    18:00 -3°C° 0 mm 1 mps 760 mmHg 92%
    19:00 -3°C° 0 mm 1 mps 760 mmHg 93%
    20:00 -3°C° 0 mm 1 mps 760 mmHg 93%
    21:00 -3°C° 0 mm 1 mps 760 mmHg 93%
    22:00 -4°C° 0 mm 1 mps 760 mmHg 93%
    23:00 -4°C° 0 mm 1 mps 760 mmHg 93%

    Tomorrow, 21 November, Wednesday

    Time Temperature Precipitation Wind Pressure Humidity
    00:00 -4°C° 0 mm 1 mps 760 mmHg 92%
    01:00 -4°C° 0 mm 1 mps 760 mmHg 92%
    02:00 -4°C° 0 mm 1 mps 760 mmHg 91%
    03:00 -4°C° 0 mm 1 mps 759 mmHg 91%
    04:00 -4°C° 0 mm 1 mps 759 mmHg 90%
    05:00 -4°C° 0 mm 1 mps 759 mmHg 90%
    06:00 -4°C° 0 mm 1 mps 759 mmHg 89%
    07:00 -4°C° 0 mm 1 mps 759 mmHg 89%
    08:00 -4°C° 0 mm 1 mps 759 mmHg 88%
    09:00 -5°C° 0 mm 2 mps 759 mmHg 86%
    10:00 -4°C° 0 mm 2 mps 759 mmHg 84%
    11:00 -3°C° 0 mm 2 mps 759 mmHg 82%
    12:00 -2°C° 0 mm 2 mps 759 mmHg 83%
    13:00 -2°C° 0 mm 2 mps 759 mmHg 83%
    14:00 -2°C° 0 mm 2 mps 759 mmHg 84%
    15:00 -2°C° 0 mm 2 mps 759 mmHg 85%
    16:00 -2°C° 0 mm 2 mps 759 mmHg 85%
    17:00 -2°C° 0 mm 2 mps 759 mmHg 86%
    18:00 -2°C° 0 mm 2 mps 759 mmHg 86%
    19:00 -2°C° 0 mm 2 mps 759 mmHg 86%
    20:00 -2°C° 0 mm 2 mps 759 mmHg 86%
    21:00 -3°C° 0 mm 2 mps 759 mmHg 86%
    22:00 -3°C° 0 mm 2 mps 759 mmHg 87%
    23:00 -1°C° 0 mm 1 mps 759 mmHg 88%

    Day after tomorrow, 22 November, Thursday

    Time Temperature Precipitation Wind Pressure Humidity
    00:00 -2°C° 0 mm 1 mps 759 mmHg 89%
    01:00 -4°C° 0 mm 2 mps 759 mmHg 90%
    02:00 -5°C° 0 mm 2 mps 759 mmHg 92%
    03:00 -5°C° 0 mm 2 mps 758 mmHg 93%
    04:00 -5°C° 0 mm 2 mps 758 mmHg 94%
    05:00 -5°C° 0 mm 2 mps 758 mmHg 95%
    06:00 -5°C° 0 mm 2 mps 758 mmHg 95%
    07:00 -5°C° 0 mm 2 mps 758 mmHg 95%
    08:00 -5°C° 0 mm 2 mps 758 mmHg 96%
    09:00 -4°C° 0 mm 2 mps 758 mmHg 93%
    10:00 -4°C° 0 mm 3 mps 758 mmHg 90%
    11:00 -2°C° 0 mm 3 mps 758 mmHg 86%
    12:00 -2°C° 0 mm 3 mps 757 mmHg 85%
    13:00 -2°C° 0 mm 3 mps 757 mmHg 83%
    14:00 -2°C° 0 mm 4 mps 757 mmHg 81%
    15:00 -3°C° 0 mm 4 mps 756 mmHg 83%
    16:00 -4°C° 0 mm 4 mps 756 mmHg 85%
    17:00 -5°C° 0 mm 4 mps 756 mmHg 87%
    18:00 -5°C° 0 mm 4 mps 756 mmHg 89%
    19:00 -5°C° 0 mm 4 mps 756 mmHg 90%
    20:00 -5°C° 0 mm 4 mps 756 mmHg 91%
    21:00 -4°C° 0 mm 4 mps 756 mmHg 90%
    22:00 -4°C° 0 mm 4 mps 756 mmHg 89%
    23:00 -3°C° 0 mm 4 mps 756 mmHg 88%

    23 November, Friday

    Time Temperature Precipitation Wind Pressure Humidity
    00:00 -2°C° 0 mm 3 mps 757 mmHg 88%
    01:00 -2°C° 0 mm 3 mps 757 mmHg 88%
    02:00 -2°C° 0 mm 2 mps 757 mmHg 88%
    03:00 -2°C° 0 mm 2 mps 757 mmHg 89%
    04:00 -2°C° 0 mm 2 mps 757 mmHg 90%
    05:00 -2°C° 0 mm 2 mps 757 mmHg 91%
    06:00 -2°C° 0 mm 2 mps 758 mmHg 92%
    07:00 -3°C° 0 mm 2 mps 758 mmHg 93%
    08:00 -1°C° 0 mm 1 mps 758 mmHg 93%
    09:00 0°C° 0 mm 1 mps 759 mmHg 92%
    10:00 +1°C° 0 mm 1 mps 759 mmHg 90%
    11:00 0°C° 0 mm 0 mps 759 mmHg 88%
    12:00 +1°C° 0 mm 1 mps 759 mmHg 88%
    13:00 +1°C° 0 mm 1 mps 759 mmHg 87%
    14:00 +1°C° 0 mm 1 mps 759 mmHg 87%
    15:00 +1°C° 0 mm 1 mps 759 mmHg 87%
    16:00 +1°C° 0 mm 1 mps 759 mmHg 87%
    17:00 -1°C° 0 mm 2 mps 759 mmHg 88%
    18:00 -1°C° 0 mm 2 mps 759 mmHg 88%
    19:00 -2°C° 0 mm 2 mps 759 mmHg 88%
    20:00 -2°C° 0 mm 2 mps 758 mmHg 89%
    21:00 -2°C° 0 mm 2 mps 758 mmHg 90%
    22:00 -3°C° 0 mm 2 mps 758 mmHg 90%
    23:00 -4°C° 0 mm 2 mps 758 mmHg 91%

    24 November, Saturday

    Time Temperature Precipitation Wind Pressure Humidity
    00:00 -5°C° 0 mm 3 mps 757 mmHg 92%
    01:00 -5°C° 0 mm 3 mps 757 mmHg 92%
    02:00 -6°C° 0 mm 3 mps 757 mmHg 92%
    03:00 -6°C° 0 mm 3 mps 756 mmHg 92%
    04:00 -6°C° 0 mm 3 mps 755 mmHg 92%
    05:00 -6°C° 0 mm 3 mps 755 mmHg 93%
    06:00 -7°C° 0 mm 3 mps 754 mmHg 92%
    07:00 -7°C° 0 mm 3 mps 754 mmHg 92%
    08:00 -7°C° 0 mm 3 mps 754 mmHg 92%
    09:00 -6°C° 0 mm 3 mps 753 mmHg 88%
    10:00 -5°C° 0 mm 3 mps 753 mmHg 85%
    11:00 -4°C° 0 mm 3 mps 752 mmHg 81%
    12:00 -4°C° 0 mm 3 mps 752 mmHg 81%
    13:00 -4°C° 0 mm 3 mps 752 mmHg 81%
    14:00 -2°C° 0 mm 3 mps 751 mmHg 81%
    15:00 -2°C° 0.1 mm 3 mps 751 mmHg 83%
    16:00 -2°C° 0.1 mm 3 mps 750 mmHg 85%
    17:00 -2°C° 0.1 mm 3 mps 750 mmHg 88%
    18:00 -2°C° 0 mm 2 mps 750 mmHg 88%
    19:00 -2°C° 0 mm 2 mps 750 mmHg 89%
    20:00 -2°C° 0 mm 2 mps 750 mmHg 90%
    21:00 -2°C° 0 mm 2 mps 750 mmHg 91%
    22:00 -2°C° 0 mm 2 mps 750 mmHg 92%
    23:00 0°C° 0 mm 1 mps 750 mmHg 94%

    25 November, Sunday

    Time Temperature Precipitation Wind Pressure Humidity
    00:00 0°C° 0 mm 1 mps 750 mmHg 94%
    01:00 0°C° 0 mm 1 mps 750 mmHg 95%
    02:00 0°C° 0 mm 1 mps 750 mmHg 95%
    03:00 0°C° 0 mm 1 mps 750 mmHg 95%
    04:00 -1°C° 0 mm 0 mps 749 mmHg 95%
    05:00 -1°C° 0 mm 0 mps 749 mmHg 95%
    06:00 -1°C° 0 mm 0 mps 749 mmHg 95%
    07:00 0°C° 0 mm 1 mps 749 mmHg 95%
    08:00 0°C° 0 mm 1 mps 749 mmHg 95%
    09:00 0°C° 0.1 mm 1 mps 749 mmHg 94%
    10:00 0°C° 0.1 mm 1 mps 749 mmHg 93%
    11:00 +1°C° 0.1 mm 1 mps 749 mmHg 92%
    12:00 +1°C° 0 mm 1 mps 749 mmHg 92%
    13:00 -1°C° 0 mm 2 mps 749 mmHg 92%
    14:00 -1°C° 0 mm 2 mps 749 mmHg 91%
    15:00 -2°C° 0 mm 2 mps 748 mmHg 92%
    16:00 -2°C° 0 mm 2 mps 748 mmHg 92%
    17:00 -2°C° 0 mm 3 mps 748 mmHg 93%
    18:00 -4°C° 0 mm 3 mps 748 mmHg 93%
    19:00 -4°C° 0 mm 3 mps 748 mmHg 92%
    20:00 -4°C° 0 mm 3 mps 748 mmHg 92%
    21:00 -5°C° 0 mm 3 mps 748 mmHg 92%
    22:00 -5°C° 0 mm 3 mps 748 mmHg 93%
    23:00 -6°C° 0 mm 3 mps 748 mmHg 93%
    Show more